CAPE
2808 2348 2287 2400 2437 2502 2539 2458 2506 2559 2654 2742 2832 2925 3059 2998 3139 3110 2922 2890 3182 3602 3346 3596 3467 2491 2553 2421 2208 2066 2112 2060 2092 2132 2270 2272 2394 2342 2332 2389 2318 2270 2344 2462 2884 2814 2650 2631 2826 2540 2569 2536 2095 1990 1988 2171 1843 1950 1520 1662 1942 2724 2038 1758 1696 1803 1967 1880 1588 1319 1225 1288 1429 1700 1674 1496 1413 1655 1582 1906 1883 1602 1974 2173 2220
2457 2398 2156 2193 2328 2419 2412 2565 2695 2695 2919 2890 3040 3207 3225 3152 3147 3281 2894 2919 3002 3081 3887 3536 2674 2519 2153 2156 2101 1991 1886 1820 1904 1932 1887 1810 2006 2136 2180 2103 2168 2090 1982 2153 2130 2402 2558 2434 2504 2591 2522 2455 2248 1934 1914 1886 1919 1832 1500 1537 1737 1451 1936 1912 1887 1628 1493 1321 1538 1617 1306 1410 1522 1656 1432 1333 1282 1221 1296 1608 1736 1730 1511 1634 1903
2630 2618 2314 2283 2434 2439 2599 2650 2786 2722 2926 2925 3120 3122 3160 3228 3264 2728 2942 3029 3294 3382 3065 2501 3006 2179 2073 2213 2024 2013 1962 1682 1801 1911 1688 1537 1808 1876 1703 1737 1924 1978 2013 2006 2024 2051 2159 2263 2324 2433 2400 2609 2038 1924 1890 1816 1682 1622 1499 1659 1410 1472 1550 2064 2043 1633 1646 1631 1408 1536 1308 1133 1617 1789 1448 1254 1203 1184 1262 1199 1352 1497 1502 1430 1456
2802 2813 2579 2438 2462 2642 2664 2710 2842 2642 2681 2652 2896 3117 3131 3052 3059 2862 2645 3031 3702 3642 3599 3398 2814 2453 2082 2072 2353 1958 2142 1986 1964 1882 1716 1992 2198 2325 1950 2076 2082 2127 1932 1830 1978 2130 2290 2237 2187 2318 2494 2396 2068 2099 2034 2035 1894 1650 1640 1813 1416 1532 1586 1567 1833 1732 1542 1892 1502 1312 1160 975 816 1031 1244 1662 1060 911 939 1022 1231 1554 1656 1757 1536
3046 3037 3004 2840 2801 2739 2791 2876 2784 2764 2870 2624 2622 2754 2654 3074 2918 3043 3125 3008 2977 2733 2617 2476 2589 2342 2260 1998 1968 1862 1768 1616 1589 1918 2204 2318 2127 2235 2152 2068 2082 2032 1875 1896 1878 1975 1866 1882 2006 2174 2480 1723 1636 1646 1710 1740 1688 1649 1626 1558 1533 1568 1540 1634 1800 1514 1514 1394 1087 1308 1119 922 775 854 865 1138 1122 853 829 903 1137 1618 1605 1790 1941
2982 3027 2998 2967 3038 3164 3095 3161 3010 3028 2784 2680 2514 2401 2907 2391 2110 2604 2856 2983 2702 2533 2268 2186 2117 2010 1898 1898 1729 1696 1479 1668 1755 1835 1635 1707 1578 1806 1818 1894 1803 1784 1812 1832 1809 1724 1721 1608 1611 1652 1962 1370 1296 1406 1550 1691 1682 1508 1462 1476 1529 1513 1533 1655 1226 1800 1606 1297 1568 1522 1506 1072 1148 1243 806 708 1845 813 1223 1271 1257 1397 1800 1890 2118
2591 2730 2764 2680 2978 2982 3006 3062 3206 2743 2661 2234 2256 2490 2471 2349 2486 2700 2550 2298 2610 2494 2156 2115 1919 1835 1831 1907 1797 1648 1500 1479 1510 1468 1512 1602 1633 1371 1384 1395 1328 1307 1404 1396 1387 1456 1429 1154 1254 1374 1541 1650 1084 1120 1201 1229 1285 1286 1353 1263 984 1075 1251 1309 1541 1223 1002 848 799 951 1149 998 801 802 615 862 1130 1376 1080 915 1016 1150 1381 1777 1973
2518 2480 2590 2766 2803 2758 2766 2883 2759 2050 1376 1598 1782 2164 2374 2349 2127 2076 1960 1944 2226 2349 2242 2326 1892 1840 1628 1530 1397 1322 1060 1111 1242 1182 1125 1185 1026 968 966 942 965 980 980 1034 1108 1206 1306 1231 1069 1147 1219 1232 1436 1054 1091 1125 1181 1230 1168 1006 1071 1022 974 1133 1112 1341 1008 996 842 924 814 812 857 984 984 570 1190 498 932 1204 1062 730 1074 1329 1500
2349 2237 2264 2250 2148 1992 2296 2162 1600 1013 1073 1388 1626 1647 1736 1771 1675 1414 1406 1304 1442 1639 1473 1515 1380 1140 1181 1228 1121 833 993 1051 846 766 829 880 737 689 636 599 625 678 731 827 894 933 1056 1118 1025 1060 1176 1210 1526 1306 971 1031 1187 1118 878 816 756 768 676 931 954 1140 1263 937 1027 1299 1079 1110 1182 1092 720 1242 1014 1054 657 813 992 1074 1217 1070 1157
2116 1916 1970 1849 1541 1362 992 1040 780 854 1240 1601 1455 1360 1268 1122 1261 1304 1039 1170 1310 1604 1488 1379 1292 1262 1098 1156 795 1031 994 747 543 590 710 702 562 548 533 646 669 687 689 584 620 757 784 869 995 1219 1398 1273 1504 1182 999 774 762 774 958 871 744 795 737 739 760 1056 1150 1236 1199 1600 1649 1168 750 849 616 1001 786 855 644 751 1033 1141 1288 1427 1487
2060 1670 1474 1337 1132 485 442 592 983 1168 1496 1379 1100 1108 900 946 1076 897 839 1036 1192 1117 1046 1056 1153 1039 979 827 866 954 711 562 403 526 722 669 631 600 480 500 563 612 602 664 649 717 800 880 1022 1302 1211 1224 1170 1043 876 942 728 677 698 698 756 699 679 561 646 797 596 571 617 1332 939 623 654 705 610 803 591 490 814 591 666 706 885 947 1346
2073 1622 1270 1109 688 418 540 748 982 1460 1469 1314 1050 884 717 783 972 650 586 691 898 992 1156 1340 1352 1354 1350 1220 1157 1148 906 725 629 513 358 227 270 302 318 364 495 538 560 605 631 557 671 766 858 994 1063 987 901 1026 1124 963 732 772 902 897 828 550 543 566 590 543 506 531 668 994 710 476 522 452 578 1229 1116 1071 616 648 770 956 1024 925 1118
2045 1698 1278 865 496 458 578 1054 1302 1448 1560 1326 1166 710 710 738 965 822 634 788 768 877 784 842 974 1149 1181 1132 1206 1179 1107 882 588 510 367 266 287 287 314 331 448 430 589 589 622 592 660 835 914 961 1010 1043 1066 1204 1186 1140 1022 1070 1157 804 602 533 520 486 390 430 505 556 608 822 682 596 521 327 461 1159 1246 1307 1277 1021 674 612 636 780 1029
2004 1658 1204 892 822 569 884 1137 1387 1576 1478 1326 1241 942 797 582 632 418 612 744 582 757 800 550 937 1142 1278 1272 1109 968 966 686 616 551 472 299 264 281 319 262 283 334 350 413 422 546 662 743 917 1016 1072 1110 1164 1298 1330 1436 1418 1490 1241 1114 910 1032 874 600 544 530 566 644 706 1049 695 554 544 472 540 1429 1308 701 1097 706 736 824 734 636 747
1882 1565 1230 855 736 738 760 1112 1278 1366 1170 1063 1192 1129 975 662 619 484 490 416 433 422 558 315 655 1184 1327 1457 1318 1061 970 970 780 454 267 169 168 200 232 316 281 329 376 390 520 599 714 878 985 1125 1193 1248 1305 1327 1281 1336 1488 1456 1178 1321 1571 1703 1416 1210 860 770 855 683 798 920 947 725 600 673 1421 1600 1326 952 652 706 856 620 591 644 630
1693 1534 1109 843 773 903 776 964 1108 1197 1162 1062 1250 1213 853 720 608 507 345 343 435 412 322 620 692 1250 1086 1042 1211 1094 1009 1023 1064 750 380 126 138 175 182 238 284 298 322 412 480 646 771 782 849 994 1011 1100 1156 1204 1250 1214 1226 1262 1335 1395 1312 1162 1334 1231 676 1304 1159 804 855 896 906 602 902 828 1256 1286 1250 1059 957 852 914 812 468 248 366
1430 1484 1200 842 743 780 772 888 885 858 864 941 1279 1332 1130 854 639 672 610 560 497 448 446 694 960 912 910 810 958 1016 878 692 618 588 508 259 136 189 203 196 219 339 317 436 529 686 798 755 821 824 946 903 868 821 842 915 960 962 1000 1098 1204 1126 1217 1386 1514 1057 1125 1030 1109 908 696 707 652 943 546 644 1306 1083 826 921 850 648 577 359 286
1389 1357 1278 876 704 731 586 658 816 858 801 1120 1477 1542 1321 1035 781 479 514 457 372 410 503 618 737 856 844 780 834 828 710 546 505 428 504 524 481 406 347 362 390 407 366 468 624 654 713 741 788 1020 1112 1108 1061 970 844 752 696 696 786 766 797 896 917 971 1303 1334 1258 930 974 722 638 663 689 1191 1321 1112 1092 1160 1120 1140 960 782 781 668 388
1109 1213 1277 765 643 724 650 522 594 864 1256 1309 1352 1308 1042 830 799 576 414 388 414 446 608 744 792 778 790 788 788 708 604 488 486 528 553 493 400 394 386 457 543 568 533 636 660 664 739 753 1077 1122 1112 1185 1112 961 905 816 761 744 691 756 779 832 828 846 978 1023 1020 1072 1036 869 794 597 620 1114 1012 1003 861 844 932 1109 1142 1043 903 839 604
947 1028 1051 674 538 491 422 422 470 824 916 821 623 702 548 574 666 653 584 589 530 500 766 706 1037 793 822 760 776 494 411 432 454 461 514 467 410 392 384 463 680 551 605 636 760 732 795 1000 1107 1072 1115 1090 994 941 882 790 739 767 708 664 696 733 790 778 752 826 864 900 910 870 932 1065 993 907 878 850 983 942 882 889 974 978 960 899 782
854 844 837 685 538 378 307 382 676 857 817 528 417 502 431 402 413 471 651 608 323 336 432 444 750 849 859 837 603 578 502 417 460 490 601 564 540 494 481 525 599 704 635 670 751 888 1085 1111 1200 1146 1120 1068 1032 946 914 897 820 751 729 720 743 697 724 732 844 783 719 747 798 874 802 916 815 880 753 692 794 1002 993 848 786 906 1023 1127 947
888 867 780 610 545 382 304 352 637 616 334 342 487 554 426 321 243 277 217 194 144 325 383 401 558 513 620 530 440 357 372 428 526 809 819 761 632 596 563 605 664 829 873 757 858 943 996 1022 952 1083 1116 1134 1139 1149 1012 948 691 655 678 625 673 584 556 606 742 804 776 612 655 796 781 449 750 724 656 717 738 920 973 821 697 720 1036 547 1127
1049 910 703 502 541 376 437 612 649 647 753 858 934 592 525 457 394 354 301 282 147 100 331 532 342 431 600 670 527 390 413 619 726 886 769 675 515 579 650 637 690 657 793 960 950 994 1098 965 989 1021 1086 1143 1329 1241 1204 1055 687 540 560 574 476 472 478 431 391 404 568 684 652 524 587 563 280 472 610 683 719 858 790 744 688 649 246 457 615
1149 1033 723 572 324 448 530 746 859 901 984 972 964 932 768 588 439 401 332 338 274 120 102 254 367 352 554 571 470 466 529 494 474 745 792 700 538 682 852 886 883 904 921 962 1113 1098 1080 1073 1153 1234 1229 1079 1108 970 1079 1101 955 744 538 499 462 413 405 349 298 256 182 413 607 655 644 527 316 432 553 871 920 748 727 742 644 542 450 428 518
1194 1112 779 572 310 268 577 840 944 970 1017 1181 1135 1122 920 924 732 469 424 292 298 310 188 199 302 220 260 557 378 394 351 409 550 396 452 446 534 604 751 911 962 1016 986 970 1033 1047 998 1148 1244 1267 1209 978 708 746 791 838 740 705 593 438 356 287 277 260 229 216 132 204 230 483 481 312 226 156 265 750 943 820 615 716 539 185 354 369 421
1218 1096 774 574 382 594 742 889 947 1013 1122 1242 1291 1208 1181 1062 990 728 517 464 343 298 121 120 82 111 354 306 403 476 413 426 443 477 599 757 998 1200 1124 906 962 928 1038 1116 1160 1115 1159 1226 1340 1384 1249 1153 927 925 1018 883 855 860 582 455 260 206 96 101 131 166 254 355 326 183 204 448 641 222 408 697 816 714 612 511 220 364 335 368 364
1151 1068 772 566 447 600 770 925 923 1074 1254 1192 1130 1166 1122 1224 1102 835 632 562 623 604 568 301 134 135 421 344 309 470 561 406 620 702 804 760 986 944 803 815 832 906 955 1145 1273 1282 1252 1331 1378 1395 1323 1376 1432 1370 1258 1011 964 850 558 512 407 124 98 66 58 38 24 48 222 401 422 374 314 210 464 684 531 662 611 480 545 275 402 312 370
959 964 744 484 480 700 813 938 976 1220 1223 1107 1063 1152 1248 1256 1086 970 758 542 516 667 567 320 220 376 470 286 379 604 653 711 729 918 1047 1230 1268 1294 1228 1158 1090 1031 1065 1226 1315 1404 1378 1365 1414 1422 1312 1320 1437 1384 1313 1088 904 805 630 557 416 166 89 34 21 18 11 9 12 92 281 410 470 399 348 551 516 562 430 149 130 480 445 474 516
760 809 682 561 670 723 925 968 1087 1226 1136 1019 991 1023 1114 1160 1035 1152 841 655 756 762 558 365 370 410 403 467 631 666 682 755 856 992 1138 1244 1264 1267 1216 1127 1163 1262 1257 1312 1317 1326 1419 1469 1494 1520 1528 1404 1362 1406 1299 1040 813 693 668 435 287 106 50 26 21 16 14 12 11 15 84 292 419 321 281 320 451 520 599 660 929 863 706 692 691
689 722 552 628 690 887 998 1105 1212 1195 1147 1046 1061 1133 1141 1101 977 781 919 813 851 675 466 362 310 316 432 628 714 743 794 932 1035 1147 1183 1166 1042 1089 1025 1065 1192 1226 1311 1410 1517 1506 1412 1362 1387 1454 1574 1588 1484 1487 1170 597 294 501 490 300 112 80 72 33 44 41 25 16 16 16 34 28 67 159 208 191 168 209 148 272 436 495 448 490 429
665 636 572 594 724 918 1092 1122 1226 1236 1272 1184 1211 1218 1318 999 852 829 966 902 681 524 432 340 353 396 548 699 738 926 979 1031 1209 1216 1142 1095 986 932 985 1220 1372 1479 1571 1558 1586 1528 1380 1328 1325 1414 1504 1597 1476 1427 865 430 225 222 279 180 88 62 46 34 46 50 22 17 12 11 30 17 86 67 131 145 171 140 195 44 8 6 206 323 412
548 556 620 622 691 877 1025 1139 1297 1457 1356 1266 1246 1337 1396 1176 1053 986 808 698 513 310 236 311 302 440 629 702 856 992 1002 1096 1262 1232 1078 918 764 856 1080 1325 1416 1586 1681 1688 1724 1593 1487 1430 1361 1406 1480 1660 1598 1256 820 405 216 203 155 81 113 90 46 26 18 7 10 12 10 8 26 103 188 238 314 387 106 0 0 0 0 34 156 134 156
566 700 658 642 680 856 1070 1217 1502 1412 1337 1256 1382 1368 1318 1359 1331 1245 974 673 457 300 397 385 400 514 604 828 921 894 912 1031 1210 1186 930 759 785 1001 1215 1384 1429 1462 1622 1755 1598 1539 1524 1521 1534 1626 1672 1669 1652 1439 758 368 173 178 180 83 110 96 43 23 12 1 4 7 14 12 195 176 122 174 153 237 446 388 8 0 0 0 44 17 85
584 659 597 678 882 930 1056 1286 1521 1420 1158 1298 1328 1412 1402 1477 1325 1102 755 714 613 606 516 365 448 598 780 898 884 884 870 1072 1154 1020 778 790 1028 1160 1260 1293 1426 1641 1734 1702 1702 1698 1711 1759 1736 1807 1816 1755 1800 1500 724 334 153 218 217 119 154 67 32 18 26 11 21 28 12 16 20 25 9 28 65 216 226 454 540 231 40 11 8 6 20
642 712 663 864 1024 1106 1170 1194 1182 1099 1027 1103 1222 1180 1251 1134 937 732 666 652 616 608 560 498 486 623 838 814 813 899 937 1068 1061 917 849 972 1185 1282 1348 1376 1442 1556 1561 1526 1598 1496 1500 1527 1681 1746 1728 1710 1759 1188 579 328 216 342 328 129 223 89 70 49 55 38 12 4 4 18 22 18 10 4 7 1 80 189 247 457 256 50 0 7 1
683 738 771 1074 1063 1092 1067 1172 1142 1002 922 843 1038 1002 887 982 977 782 761 614 610 577 530 602 604 652 762 850 833 852 1070 1066 933 961 1102 1158 1297 1440 1429 1465 1434 1391 1538 1644 1648 1640 1592 1545 1566 1707 1678 1520 1325 1160 588 342 344 538 455 242 205 108 72 50 44 60 40 18 4 13 13 8 9 2 1 0 0 48 176 58 363 363 134 18 9
757 798 1017 1215 1223 1243 1227 1351 1158 927 884 876 857 874 862 1021 924 742 754 664 525 544 600 694 718 804 926 999 994 918 1022 1082 1022 1065 1078 960 1088 1223 1310 1434 1350 1233 1358 1530 1571 1442 1610 1546 1520 1476 1470 1288 1172 1400 804 389 319 480 356 340 272 186 140 120 52 53 80 62 22 13 7 3 0 0 0 0 0 0 2 1 5 47 101 90 30
659 751 882 1095 968 917 916 828 838 812 834 926 915 802 959 1101 1024 950 760 676 684 671 784 877 869 967 1123 1177 1085 960 970 1055 1158 1100 831 790 826 1182 1357 1378 1242 1035 965 1012 1138 1345 1598 1708 1469 1306 952 843 818 1179 978 528 285 348 341 262 282 245 206 190 154 101 82 94 71 13 1 6 0 0 0 5 1 1 1 1 2 11 168 239 272
390 426 574 683 832 810 690 708 749 805 854 920 930 792 915 1036 1120 952 804 825 920 1017 1033 1009 1020 1053 1108 1075 1003 1048 1012 1025 1246 1109 938 852 936 1047 1110 1256 1076 984 1043 1320 1368 1418 1445 1397 1063 1114 905 664 710 954 1218 682 341 326 360 261 304 267 248 232 208 172 155 124 122 81 10 0 0 0 0 5 8 0 14 50 45 12 19 144 226
379 408 626 955 892 742 708 727 782 917 1006 928 794 837 866 1063 1044 939 965 1010 1115 1236 1461 1249 1036 944 906 935 971 1050 1198 1266 1382 1359 1242 1104 1129 1059 933 736 924 840 774 795 1201 1277 1382 1132 986 1276 926 941 919 1016 1452 914 469 372 394 322 390 318 277 254 230 207 195 175 156 126 46 21 4 0 0 0 1 6 40 76 100 4 13 226 408
172 208 360 457 670 731 1002 1124 1040 1161 967 724 677 837 1070 1292 1436 1372 1207 1174 1326 1484 1242 1029 980 892 884 992 1114 1214 1359 1504 1508 1258 1052 993 1156 971 887 1033 736 673 941 1206 1091 1030 1026 1253 1105 1150 1061 938 702 585 1055 875 651 518 410 315 441 478 330 302 220 184 182 171 160 143 99 51 53 30 0 0 0 4 9 10 18 22 99 193 330
313 467 746 623 447 687 849 850 1108 851 656 661 794 976 1266 1454 1469 1386 1406 1362 1546 1232 1046 1024 1101 1151 1127 1151 1289 1420 1474 1449 1584 1272 1210 1249 1258 1072 841 1020 856 936 1072 1127 1204 1062 1001 1128 1221 1238 1247 1108 944 377 817 839 502 336 239 250 444 634 534 425 260 229 215 201 190 153 122 102 92 69 22 0 0 0 0 4 16 16 14 50 140
292 423 637 685 717 668 713 798 659 436 505 590 701 1068 1334 1398 1349 1445 1542 1540 1284 1054 1026 1117 1176 1138 1229 1298 1475 1576 1577 1624 1483 1274 1234 1015 1109 1088 1272 1286 1214 1084 1074 986 950 990 838 710 800 932 1218 1255 1114 979 477 806 391 0 0 0 105 455 635 528 379 313 290 248 200 186 166 140 120 99 74 12 0 0 0 3 22 14 0 0 1
359 238 510 734 993 1055 958 860 298 471 535 629 810 1134 1364 1363 1392 1590 1468 1140 876 849 991 1064 1201 1423 1510 1525 1498 1517 1740 1654 1297 1335 1078 1032 988 1035 1196 1364 1112 1036 876 803 803 880 864 606 539 568 931 1014 1190 1034 960 104 68 0 0 0 0 60 340 517 478 392 362 315 257 211 168 144 112 108 99 54 13 2 0 0 28 36 18 5 4
536 260 379 458 797 1214 1127 844 610 672 799 856 817 1087 1328 1330 1550 1561 1108 940 912 1038 1259 1287 1402 1493 1641 1468 1363 1408 1581 1247 927 1074 885 850 749 927 967 1306 1160 932 936 792 814 603 752 700 695 767 834 875 890 914 985 504 0 0 0 0 0 0 0 0 106 362 306 220 153 138 116 104 84 79 98 98 52 22 0 1 18 46 29 16 4
338 371 306 306 492 626 714 870 879 698 768 771 863 925 1200 1374 1497 1092 999 911 1032 1104 1132 1163 1265 1400 1381 1205 1084 1250 1449 994 786 848 861 1008 691 634 737 1054 1032 865 838 830 711 536 501 478 589 476 674 625 652 890 916 432 25 0 0 0 0 0 0 0 0 96 3 0 0 0 79 72 49 62 86 105 77 50 21 6 4 18 26 26 20
724 595 350 399 536 555 690 735 783 663 459 422 680 682 920 1178 916 856 816 989 997 968 1024 1287 1462 1285 1224 1072 1058 1110 1026 548 604 722 683 672 766 740 907 942 873 714 613 537 398 381 351 262 378 354 418 514 602 622 375 0 0 0 0 0 0 0 0 0 114 167 8 68 99 107 139 57 52 75 80 104 107 81 90 66 44 20 16 28 27
201 139 187 365 588 734 739 815 796 864 452 313 370 541 544 573 401 448 442 677 752 936 1128 1242 1086 950 969 1110 1198 1116 928 355 341 306 232 414 472 437 711 758 587 438 469 407 306 359 176 94 86 94 170 285 359 246 6 0 0 0 0 0 0 0 0 0 0 0 1 0 156 225 323 360 336 255 270 239 222 165 132 121 110 68 44 35 24
315 199 237 466 726 721 872 879 795 423 182 174 179 160 181 376 466 443 681 890 1131 1232 1098 1065 814 816 688 1072 1205 1030 976 468 406 717 841 972 698 620 758 163 0 1 4 38 164 15 0 0 0 0 0 2 1 0 0 0 0 0 0 1 0 0 0 0 0 0 2 31 324 250 208 146 159 192 196 218 191 178 202 190 125 102 113 63 32
128 52 168 435 442 528 669 559 535 203 241 286 292 336 324 234 430 645 868 1057 1140 978 806 462 462 388 208 266 618 623 638 795 264 428 649 507 0 0 151 197 0 0 0 0 0 0 0 0 0 1 2 0 1 0 0 0 0 0 0 0 0 0 0 1 0 0 0 68 241 188 139 134 133 140 123 133 158 164 201 240 195 151 158 124 83
196 124 239 273 409 340 383 283 233 182 228 324 383 364 536 410 742 707 684 1046 901 788 567 424 458 273 300 411 345 346 764 970 700 793 780 490 44 0 0 0 0 0 0 0 0 0 0 0 0 0 0 0 0 0 0 0 0 0 0 0 0 0 0 0 0 0 192 192 170 176 144 143 116 84 72 70 88 168 184 222 226 227 187 162 142
Wind_Speed
7 9 9 10 10 10 11 13 14 15 15 15 15 14 15 15 16 16 16 17 18 19 20 21 20 18 16 17 19 18 19 20 21 21 22 22 22 22 23 24 23 22 22 23 25 27 28 27 26 23 24 26 27 25 23 25 32 33 28 29 23 23 22 19 19 22 23 22 21 19 17 17 17 19 19 19 18 18 19 19 19 21 23 26 28
9 10 11 11 11 12 12 12 14 15 13 14 14 14 14 15 15 15 16 18 20 21 23 24 21 20 17 18 20 19 21 21 22 25 25 25 25 26 27 25 25 26 26 26 25 25 26 28 28 26 26 27 26 26 28 30 33 31 29 27 28 23 22 23 23 25 23 21 24 24 21 19 18 18 18 18 18 18 18 18 18 18 19 23 27
11 11 12 13 13 14 13 14 15 14 14 13 12 13 14 14 15 14 16 17 19 21 23 24 24 24 21 18 20 21 21 19 20 21 22 23 24 25 24 24 25 26 26 26 27 26 26 25 26 27 27 28 27 26 26 26 29 29 30 29 31 27 23 25 26 27 23 25 27 27 22 23 24 22 20 19 20 20 19 16 15 15 15 19 24
13 13 15 15 15 15 15 15 15 15 14 13 13 13 13 14 14 15 16 18 20 21 22 24 24 25 24 21 19 19 18 19 20 20 21 23 24 25 24 25 25 25 26 26 26 26 27 26 24 25 27 29 29 26 27 25 25 29 31 34 32 29 28 27 29 29 24 28 28 26 25 26 22 20 23 25 23 21 19 18 17 16 16 18 21
14 15 15 16 17 18 18 17 15 15 14 13 14 14 15 16 18 19 21 22 22 24 24 25 26 26 25 23 20 19 18 20 20 22 24 25 25 25 24 23 23 22 23 23 24 26 25 25 25 25 27 31 30 27 25 25 24 28 27 32 31 29 27 30 34 31 28 28 29 31 27 25 21 23 28 26 26 25 22 20 20 19 18 19 20
13 16 17 17 19 19 19 19 17 16 14 14 15 16 17 20 21 22 22 24 25 25 26 26 26 26 26 26 25 24 22 23 22 22 22 23 22 22 21 22 22 22 24 23 23 23 23 23 23 24 26 29 30 28 26 26 24 23 27 30 31 30 30 33 31 36 32 29 30 28 26 25 27 31 32 29 34 28 27 25 23 22 22 20 20
12 12 15 18 18 20 21 21 20 19 16 16 17 19 21 23 23 23 24 25 26 27 27 27 27 26 27 26 26 26 25 25 25 23 22 21 21 20 20 20 20 20 22 23 23 23 24 24 24 24 25 28 29 26 25 24 24 24 28 35 36 33 31 29 28 33 36 32 27 21 23 24 25 28 25 30 27 29 27 26 24 24 24 22 20
16 17 18 18 20 21 24 23 22 21 20 20 22 23 26 27 28 27 26 28 29 30 30 28 28 29 29 29 29 28 28 26 26 25 24 23 21 21 21 21 20 20 21 22 23 23 25 26 25 25 26 27 28 27 25 25 27 28 32 34 33 35 33 30 24 27 33 30 29 25 20 20 21 23 26 27 29 26 26 28 26 25 26 26 23
17 19 20 21 22 22 22 24 22 23 23 25 26 28 29 30 30 30 29 30 31 31 31 30 30 30 30 30 30 29 29 29 28 27 26 25 23 23 22 21 22 21 21 22 23 24 24 25 25 26 27 28 29 29 26 26 27 27 29 31 32 35 38 33 30 30 31 29 30 28 25 27 28 27 28 28 26 26 24 25 27 27 26 26 27
16 18 20 21 22 23 22 22 25 25 25 27 29 30 30 31 32 32 30 29 31 31 31 31 31 31 31 31 30 31 32 31 31 30 30 30 28 27 27 28 28 27 25 24 24 24 25 26 27 27 26 28 30 28 28 30 30 28 27 31 31 33 33 34 30 30 29 29 29 30 32 31 30 30 26 28 29 27 25 27 31 30 27 29 30
17 17 18 20 22 23 24 26 26 26 28 31 31 31 31 32 33 34 31 30 32 32 32 32 31 30 30 30 31 31 32 32 31 31 31 31 31 32 31 32 32 32 31 30 28 26 26 26 27 28 28 29 31 30 28 29 31 31 30 33 32 32 29 32 33 34 34 32 29 31 33 30 31 30 27 31 30 32 30 26 27 29 28 28 31
20 19 20 21 23 25 25 27 27 29 30 31 32 31 32 32 34 36 33 32 33 33 33 32 31 31 29 29 29 30 31 32 31 29 29 29 30 31 33 34 35 35 34 33 32 29 27 26 25 27 30 30 29 29 29 30 31 32 32 33 34 36 31 33 37 38 33 32 27 31 30 31 30 28 26 33 34 33 32 30 30 33 32 30 33
22 21 22 22 24 27 28 29 28 30 31 32 32 32 32 32 33 35 34 32 32 32 32 32 31 30 29 28 29 30 31 31 30 30 30 30 30 31 32 34 35 34 34 32 31 29 28 27 25 26 28 30 29 29 29 30 32 33 33 32 33 33 36 33 32 34 34 30 29 30 30 29 27 24 27 32 34 35 36 31 28 31 32 34 34
22 23 23 23 24 26 28 29 30 30 32 32 32 33 32 33 33 35 34 32 33 33 33 34 33 32 31 31 30 31 32 32 32 31 31 32 32 32 33 34 35 34 31 29 28 26 27 27 26 25 26 27 29 28 28 29 31 32 33 34 31 34 36 33 31 32 34 30 31 32 33 30 27 28 28 34 34 34 35 31 32 33 31 32 35
23 23 24 24 25 27 29 30 30 31 33 33 33 33 33 34 35 36 35 33 33 34 34 33 32 32 31 32 32 33 33 34 34 34 33 32 33 33 34 35 35 34 31 29 26 25 25 26 27 26 26 27 28 29 28 28 29 30 32 33 33 35 35 36 35 33 35 32 30 31 32 31 29 28 35 36 35 34 33 33 34 32 31 31 31
26 26 25 24 25 27 29 30 31 32 34 33 33 34 33 35 36 35 33 33 33 34 34 33 32 31 31 30 32 33 33 34 35 36 36 35 35 36 35 36 36 34 31 28 26 25 25 24 25 27 27 28 29 30 30 29 30 30 30 30 31 34 34 34 34 34 33 32 32 33 36 33 31 29 31 34 35 36 34 33 34 32 31 29 32
28 29 29 28 27 28 30 32 33 33 34 34 34 34 34 35 36 35 33 32 33 34 34 34 32 31 31 31 32 33 33 33 33 33 35 38 38 39 39 37 36 34 30 27 26 25 24 24 26 27 29 30 30 30 31 31 31 31 31 30 29 30 33 35 37 36 34 35 39 36 37 36 32 33 33 31 36 36 35 35 34 32 31 30 31
30 30 31 30 30 31 31 33 34 35 35 35 35 34 34 35 36 35 33 32 35 35 35 34 33 32 32 32 33 34 34 34 34 34 35 37 40 41 41 40 38 33 30 27 26 25 25 26 27 29 30 31 31 30 31 31 31 31 31 31 30 30 30 33 38 38 37 38 37 40 38 39 35 37 39 37 38 37 35 36 34 33 35 33 30
31 32 32 32 31 31 33 34 34 34 34 34 35 35 35 35 35 33 32 32 34 35 35 35 34 33 34 34 34 35 35 35 35 36 37 38 39 40 40 39 37 34 29 27 26 26 26 27 28 29 30 30 30 30 30 30 30 30 31 32 32 31 30 31 35 38 40 39 38 36 38 38 36 39 40 40 39 38 36 36 35 35 36 36 33
33 33 33 33 32 32 34 35 35 35 35 34 35 35 36 37 36 34 32 33 35 36 36 35 35 35 35 35 36 36 36 37 37 37 39 40 40 40 40 39 37 34 31 28 27 26 26 27 28 29 28 28 28 28 28 28 29 30 31 32 33 32 31 30 31 35 40 41 39 37 37 39 40 42 40 39 39 38 37 36 36 35 34 34 36
33 34 34 34 34 34 34 35 34 34 34 34 35 35 36 37 37 35 34 34 36 36 37 36 36 36 36 36 36 37 37 38 38 39 40 41 42 41 41 39 37 35 33 30 27 26 27 28 28 27 26 25 25 24 26 27 28 29 30 31 33 34 32 33 32 32 35 39 40 39 37 37 39 40 41 39 38 38 38 37 36 35 35 37 38
34 34 35 34 34 35 35 35 35 35 35 35 35 36 37 37 36 35 34 35 35 37 37 36 36 35 35 36 37 37 38 40 40 40 41 42 43 42 41 39 37 34 33 30 27 26 28 28 28 27 25 24 24 24 25 26 26 27 28 31 32 33 34 33 33 32 34 38 41 41 40 37 36 36 38 38 38 38 38 37 37 35 35 35 39
33 34 34 34 35 36 37 38 37 36 36 36 37 37 37 38 37 36 35 35 36 nan 38 38 36 36 36 38 38 39 39 40 40 41 41 42 44 43 42 39 36 33 32 30 26 26 27 29 29 27 25 24 25 24 25 24 25 25 26 27 29 31 33 34 33 32 32 35 37 38 37 36 36 33 34 35 35 37 37 36 36 37 33 35 37
33 33 33 34 35 36 37 38 37 37 37 37 37 38 38 37 37 37 36 36 37 38 38 38 38 37 38 39 39 40 40 40 41 41 41 42 44 44 42 39 36 33 31 29 27 26 27 29 30 29 26 25 24 23 22 21 21 22 23 23 25 26 27 29 30 31 33 33 34 36 36 33 32 30 32 35 35 35 36 36 35 36 34 32 36
33 34 34 35 36 37 38 39 38 37 38 38 38 38 38 38 39 37 36 36 38 39 38 38 38 37 38 40 40 41 41 41 42 42 41 43 44 43 41 37 35 32 30 28 28 28 29 30 31 31 28 26 25 23 20 17 16 18 19 21 23 23 23 24 24 27 30 31 32 35 34 33 33 29 28 34 36 36 35 36 35 34 34 33 36
34 34 35 36 36 37 39 39 38 38 39 39 39 39 39 39 39 38 37 38 39 39 38 38 nan 39 40 40 41 43 43 43 43 43 43 44 45 44 40 37 35 31 30 29 28 29 31 31 32 32 31 28 26 24 21 18 17 16 18 19 20 22 nan 21 20 22 26 29 31 32 34 33 31 29 29 32 34 34 35 33 29 32 33 34 34
35 35 35 36 37 38 39 39 39 39 40 40 39 39 40 40 39 39 39 39 40 40 40 40 39 40 41 42 42 44 45 44 45 45 46 46 46 43 39 35 33 31 30 29 28 29 31 32 32 33 31 29 27 25 23 21 19 18 18 18 18 18 nan nan nan nan nan nan 28 30 32 31 30 29 29 31 32 34 35 31 31 32 32 34 35
34 35 36 37 38 39 39 39 39 39 40 39 39 40 40 41 40 40 41 41 42 42 42 41 41 42 43 43 44 46 46 46 46 46 46 47 46 45 41 37 33 32 31 30 28 29 30 33 33 33 32 31 28 26 24 22 20 20 21 20 18 17 nan nan nan nan nan nan nan nan 29 29 29 29 29 30 33 36 36 32 30 34 36 37 37
35 35 36 37 39 39 39 39 38 39 39 39 40 40 41 41 41 41 42 42 44 44 44 43 43 43 44 45 46 47 48 47 46 46 46 46 45 44 41 37 33 32 33 31 30 29 29 30 32 32 32 33 31 29 27 24 21 20 22 21 18 15 nan nan nan nan nan nan nan nan nan 27 27 27 27 30 33 36 35 33 35 38 36 37 39
37 37 37 37 39 40 39 39 37 38 38 39 40 41 42 43 43 43 43 44 46 46 45 44 44 44 45 46 47 47 47 46 45 45 44 44 43 43 40 36 32 31 31 32 30 29 29 29 30 31 31 32 33 32 31 27 24 22 20 21 19 nan nan nan nan nan nan nan nan nan nan nan nan 26 27 27 27 29 31 32 35 36 36 38 38
37 38 38 38 40 39 39 38 37 37 38 40 41 42 43 43 44 45 46 46 48 47 47 46 45 45 46 46 48 47 47 45 44 44 44 43 42 41 39 36 33 32 31 32 31 28 27 29 30 30 30 31 32 32 31 28 25 23 21 19 nan nan nan nan nan nan nan nan nan nan nan nan nan nan 24 24 26 28 28 nan nan nan 32 33 34
38 38 39 40 40 39 38 37 37 38 39 41 42 43 45 45 46 46 47 48 49 48 47 46 45 45 46 47 47 47 45 44 44 44 42 42 41 40 37 35 34 33 32 32 30 28 27 29 31 31 30 31 31 32 30 27 26 24 22 nan 19 nan nan nan nan nan nan nan nan nan nan 25 25 25 26 26 26 nan nan nan nan nan 24 28 30
38 39 40 40 40 39 38 37 38 39 40 41 44 45 45 47 48 48 49 49 48 47 46 45 45 45 45 47 48 47 45 44 44 43 42 41 40 38 36 34 33 34 32 30 29 27 26 28 30 30 29 30 30 33 30 27 27 26 23 nan 20 nan nan nan nan nan nan nan nan nan 35 33 31 29 26 25 26 28 nan nan nan nan nan nan nan
37 37 39 39 38 38 37 37 39 40 41 43 45 46 45 47 48 50 50 49 48 47 46 44 45 45 46 48 48 47 46 45 44 43 41 39 38 37 36 35 35 34 31 28 26 25 25 27 29 29 28 29 29 32 31 28 26 25 23 20 18 nan nan nan nan nan nan nan nan nan nan nan nan nan nan 34 29 25 28 29 nan nan nan nan nan
36 36 37 38 38 38 38 38 38 40 42 45 45 46 46 47 49 50 50 49 47 46 45 45 45 46 48 49 49 48 47 46 44 43 40 39 37 36 36 36 35 33 29 27 25 24 24 25 26 27 27 28 29 32 29 28 28 26 23 19 18 nan nan nan nan nan nan nan nan nan nan nan nan nan nan nan nan 36 30 27 29 nan nan nan nan
35 37 38 38 38 38 39 39 41 43 44 45 46 47 48 48 50 49 49 48 47 46 46 46 47 48 48 49 49 48 47 46 44 42 39 37 36 36 35 36 34 31 28 26 25 25 23 23 24 25 26 26 27 34 31 29 28 26 22 19 16 16 nan nan nan nan nan nan nan nan nan nan nan nan nan nan nan nan 32 nan 28 29 26 nan nan
36 37 38 38 38 38 39 41 43 43 45 46 47 49 49 49 50 48 48 48 48 47 47 48 49 49 49 49 48 47 45 44 43 40 37 35 35 35 35 36 32 29 26 24 24 23 22 22 23 24 24 24 24 29 32 31 29 27 24 20 16 15 16 13 nan nan nan nan nan nan nan nan nan nan nan nan nan nan nan nan nan nan 23 nan nan
37 36 36 37 37 38 40 41 41 43 45 47 49 50 50 50 48 48 48 48 48 47 48 49 49 49 49 48 47 46 45 43 42 39 35 34 35 36 35 34 31 27 24 22 21 21 21 21 22 23 23 22 23 26 29 29 29 28 26 22 16 13 13 12 9 15 nan nan nan nan nan nan nan nan nan nan nan nan nan nan nan nan 22 23 25
34 35 36 36 38 40 40 41 42 42 46 50 51 51 50 50 48 47 47 48 48 47 48 49 48 48 47 46 45 45 44 42 39 37 36 35 35 34 33 32 29 26 23 22 21 21 21 21 22 22 24 22 22 23 26 27 29 28 26 22 16 11 10 12 9 12 14 13 15 nan nan nan nan nan nan nan nan nan nan nan nan nan nan 19 21
33 33 34 36 40 41 40 41 42 43 49 52 52 50 50 50 49 48 48 48 47 47 48 48 47 45 45 44 44 43 43 41 38 37 37 36 35 34 32 29 27 25 23 22 22 22 21 21 22 23 22 22 22 22 23 25 27 27 27 23 17 12 9 8 8 8 12 11 10 12 nan nan nan nan nan nan nan nan nan nan 36 nan nan 19 20
35 34 36 37 38 40 40 42 43 46 50 52 52 51 50 50 49 48 47 46 46 48 48 46 46 44 43 42 42 43 42 40 38 36 37 36 35 33 31 28 25 24 22 21 21 22 21 21 21 22 23 22 23 21 22 24 23 25 26 24 18 13 10 8 7 6 10 11 8 6 nan nan nan nan nan nan nan nan nan nan nan nan nan 28 25
34 36 38 38 39 40 39 39 43 48 49 51 52 51 50 51 49 47 46 46 47 47 47 46 45 43 41 41 41 42 42 39 37 37 37 35 34 34 32 28 26 24 21 20 21 21 20 19 20 21 23 22 22 22 21 22 22 22 22 24 21 15 12 10 7 6 6 9 9 6 6 7 nan nan nan nan nan nan nan nan nan nan nan nan 29
36 35 36 39 40 40 40 41 45 48 50 51 52 51 51 51 48 46 47 47 47 47 46 45 44 43 42 42 42 42 41 40 38 36 35 33 33 32 31 28 25 23 21 20 20 20 19 18 18 20 23 24 23 22 22 22 23 nan nan nan 20 17 12 14 11 8 6 4 7 9 8 7 11 nan nan nan nan nan nan nan nan nan nan nan nan
34 35 38 39 38 39 40 45 47 49 50 52 52 51 50 49 46 46 48 48 48 47 47 45 44 43 44 43 42 41 40 39 36 34 33 32 31 30 29 27 24 22 21 20 20 21 20 18 18 18 21 23 24 21 23 24 nan nan nan nan nan nan 15 15 13 11 9 6 3 6 8 9 9 10 nan nan nan nan nan nan nan nan nan nan nan
36 37 40 39 37 37 40 44 47 48 50 50 50 49 48 46 44 47 47 48 48 47 46 45 44 43 42 42 41 39 38 38 35 33 33 32 30 29 26 25 22 21 21 21 21 21 20 19 19 18 19 21 23 21 20 22 nan nan nan nan nan nan nan nan 13 11 9 7 4 4 5 6 nan nan nan nan nan nan nan nan nan nan nan nan nan
36 37 39 38 39 39 41 42 46 49 49 49 47 46 46 43 46 47 47 48 47 45 43 42 42 41 40 40 38 36 37 34 31 31 31 30 29 27 25 23 22 22 21 21 21 22 21 20 19 18 19 19 21 21 19 17 nan nan nan nan nan nan nan nan nan nan nan nan nan nan nan nan nan nan nan 14 nan nan nan nan nan nan nan nan nan
37 40 41 41 41 41 42 44 44 49 49 48 47 45 44 44 46 47 47 47 45 43 41 42 41 40 39 38 35 34 36 36 32 31 31 30 29 27 25 23 23 22 21 21 22 23 22 21 20 19 19 18 19 21 20 nan nan nan nan nan nan nan nan nan 14 14 nan nan nan 3 3 nan nan nan nan 11 16 nan nan nan nan nan nan nan nan
40 41 41 41 43 43 43 44 44 48 49 47 47 46 45 44 44 45 45 45 42 41 41 41 41 40 38 36 33 33 35 35 34 32 31 29 27 25 24 24 24 24 22 22 23 24 24 nan nan nan 19 19 19 21 nan nan nan nan nan nan nan nan nan nan nan nan nan nan 10 8 6 7 9 11 11 14 17 20 22 25 27 nan nan nan nan
41 41 42 42 42 41 41 43 45 48 48 48 47 46 45 45 44 44 44 42 42 42 42 41 41 40 37 35 34 34 35 35 35 33 31 29 25 26 26 26 nan nan nan nan 24 nan nan nan nan nan nan nan nan nan nan nan nan nan nan nan nan nan nan nan nan nan nan nan 11 11 11 9 10 10 11 12 15 18 21 23 27 28 30 nan nan
42 nan 43 42 42 41 42 44 47 48 47 47 46 46 45 44 44 44 43 41 42 42 42 41 41 39 37 36 35 34 35 34 32 30 32 35 nan nan 24 26 nan nan nan nan nan nan nan nan nan nan nan nan nan nan nan nan nan nan nan nan nan nan nan nan nan nan nan nan 10 11 12 11 10 10 10 11 12 15 19 23 25 26 30 33 nan
47 47 46 44 44 45 46 47 47 47 46 45 45 45 44 43 43 42 41 42 42 42 41 40 40 38 38 36 33 31 34 34 31 30 31 34 nan nan nan nan nan nan nan nan nan nan nan nan nan nan nan nan nan nan nan nan nan nan nan nan nan nan nan nan nan nan 15 14 11 10 11 11 11 nan nan nan nan 11 15 19 22 24 29 32 34
Wind_Direction
342 349 351 352 349 345 341 336 334 332 333 337 341 347 353 354 351 354 355 350 346 337 336 335 347 352 347 343 341 339 339 336 333 332 331 329 328 326 323 317 315 316 314 312 313 315 314 313 309 309 302 295 293 297 301 293 280 276 275 274 275 271 267 267 264 262 261 261 260 250 239 240 244 255 257 255 254 253 255 257 256 251 249 245 240
345 344 344 345 347 344 342 339 339 340 338 337 344 344 342 345 350 350 352 351 350 343 335 334 342 346 338 337 333 333 330 328 326 322 322 321 322 321 319 317 316 314 312 310 311 311 310 310 309 307 302 299 301 299 287 281 281 280 272 266 267 263 261 267 266 266 266 266 259 252 244 242 244 253 257 255 254 253 257 261 261 260 256 251 246
344 341 346 351 347 346 345 344 346 350 342 343 339 338 339 341 344 346 346 348 341 335 331 334 329 325 335 335 327 321 323 324 321 317 318 321 322 321 320 318 316 314 311 309 307 307 308 308 308 305 305 302 306 303 294 290 287 286 280 272 264 262 260 263 270 275 264 265 262 253 247 238 247 246 247 253 254 254 258 263 264 264 262 256 250
347 345 349 354 353 349 347 348 350 350 347 344 344 343 333 334 333 334 338 337 331 330 330 327 327 328 333 334 329 327 317 313 317 317 316 316 317 314 312 312 312 310 308 308 306 305 304 305 304 302 300 301 305 304 298 294 285 280 282 280 279 271 268 267 272 274 267 263 265 264 250 245 235 240 241 247 256 259 263 263 262 261 264 262 253
343 344 347 352 356 356 355 354 353 356 354 346 339 333 329 322 322 324 329 332 331 329 328 326 326 326 330 333 331 327 324 320 316 316 314 312 311 309 306 304 303 303 303 304 306 306 305 302 301 298 296 298 301 301 300 299 294 282 282 285 290 280 270 265 268 273 274 270 264 257 252 249 247 240 239 240 254 258 262 263 263 265 263 265 262
346 346 347 352 354 350 349 352 354 352 345 337 336 334 331 328 329 331 332 333 332 329 328 328 328 328 329 330 333 334 330 325 320 313 310 307 305 301 302 302 300 302 303 303 304 303 300 298 297 296 296 296 299 299 298 293 290 286 281 277 278 276 264 259 260 264 264 268 262 260 253 242 240 243 244 244 253 252 253 256 260 265 264 264 262
342 340 343 346 346 346 348 350 348 344 330 326 329 333 336 335 333 329 327 328 329 328 330 329 329 330 330 332 332 331 330 327 323 320 316 313 308 306 303 300 298 298 300 301 303 304 302 299 297 295 293 294 297 297 298 296 289 283 277 266 263 265 266 265 264 260 258 261 266 260 251 246 242 242 241 240 240 251 253 251 255 261 261 262 262
340 343 347 346 344 347 346 343 341 335 328 326 326 328 332 333 330 327 326 328 331 331 332 332 330 331 331 332 331 331 331 329 326 323 320 315 311 306 303 301 299 298 299 300 302 303 302 300 298 295 293 292 291 291 290 285 280 278 279 282 277 270 269 266 267 260 258 257 262 260 255 248 243 238 240 244 239 238 246 250 247 249 254 255 254
341 340 345 342 341 342 340 337 331 331 331 330 327 326 328 328 328 325 324 326 329 328 327 327 327 328 328 329 330 330 329 327 325 324 321 317 315 310 307 302 298 296 296 297 298 299 299 297 294 293 292 291 290 286 285 281 279 278 283 283 276 266 264 265 261 257 255 254 255 259 257 252 249 244 238 247 246 242 239 243 243 245 248 251 252
341 342 338 335 333 334 333 328 332 331 329 327 326 326 327 325 325 323 322 324 326 326 325 325 326 328 328 328 329 329 328 328 328 328 327 325 324 321 316 312 307 302 296 294 295 295 294 293 294 295 291 285 284 283 281 276 275 277 275 278 278 275 268 266 263 256 251 247 251 255 257 252 249 248 250 252 250 246 237 238 244 245 245 247 251
334 334 329 327 324 324 326 333 329 328 328 328 327 327 325 323 322 320 320 321 324 326 325 324 325 325 326 327 329 330 330 331 330 331 329 328 326 324 321 316 312 309 305 302 299 296 291 288 289 291 288 285 283 279 277 274 275 274 271 274 274 275 267 267 265 257 249 247 245 249 255 254 249 246 251 254 251 247 244 239 243 248 244 240 247
329 328 325 325 321 322 323 328 329 326 325 326 325 324 322 321 321 320 320 320 325 327 325 323 324 324 324 326 327 329 330 331 331 331 329 328 326 324 321 318 315 311 310 308 306 301 295 292 288 287 287 285 282 278 274 271 267 268 268 267 267 269 264 262 261 259 254 251 251 252 252 254 248 247 248 255 253 247 242 236 239 245 247 246 242
326 323 320 321 323 323 324 325 325 326 325 325 324 322 319 320 321 318 313 315 319 321 318 318 319 320 321 324 326 327 329 331 331 331 329 328 325 323 320 316 314 313 311 309 306 300 299 297 292 288 286 285 282 280 276 274 271 268 266 264 265 266 264 264 260 259 259 256 253 252 250 250 251 249 252 253 249 244 241 235 235 240 241 242 244
321 318 318 319 319 319 319 322 324 324 323 323 322 320 319 319 319 315 312 313 317 319 318 317 319 321 322 324 325 326 328 329 330 329 328 326 324 323 320 316 314 314 313 309 304 299 298 296 295 292 288 285 282 280 277 275 274 271 269 265 260 260 262 265 256 255 255 258 254 249 251 250 248 250 252 253 250 247 243 238 236 239 241 240 242
310 310 314 316 316 317 317 319 321 323 323 323 321 321 320 319 316 314 311 312 316 319 317 316 317 318 320 322 323 324 327 328 329 328 325 324 324 323 321 318 316 315 314 310 304 300 297 295 293 291 287 282 280 278 275 273 273 271 268 267 262 259 260 259 254 253 252 255 253 246 244 248 246 244 251 252 249 247 244 240 239 237 239 242 241
308 309 309 311 313 312 314 317 319 320 322 323 323 321 321 318 314 312 311 312 317 318 316 315 316 317 318 320 321 323 325 326 326 324 324 324 325 325 323 320 318 316 315 311 306 302 299 295 293 290 287 284 279 277 275 272 270 270 269 268 266 261 256 256 253 252 251 251 248 244 244 245 247 245 246 249 247 246 246 242 241 239 238 237 241
306 309 309 312 311 312 314 316 316 318 321 325 325 323 322 316 314 313 312 314 318 319 317 316 316 317 318 321 321 322 323 323 323 322 323 324 326 326 325 322 319 317 314 310 307 304 301 298 295 292 289 287 283 278 275 272 268 266 266 265 262 261 258 251 249 247 246 246 246 247 246 246 245 246 245 246 247 244 244 243 241 239 240 240 238
307 305 306 309 311 313 313 313 316 319 323 325 325 322 318 315 314 314 313 316 318 318 318 317 317 317 319 322 323 323 323 323 323 324 324 325 326 327 327 326 322 318 314 311 307 305 304 302 300 297 294 290 286 280 275 270 266 263 262 261 261 259 256 253 250 246 243 244 245 248 245 246 248 248 248 250 250 247 245 245 242 241 244 244 240
304 307 305 307 309 311 311 313 314 316 320 321 320 320 318 314 313 314 314 314 315 315 316 316 317 317 320 322 323 323 324 324 325 325 325 326 327 326 327 327 324 320 315 310 307 306 306 304 304 300 296 291 287 282 277 273 267 262 257 256 256 257 257 255 252 248 243 242 242 243 244 245 245 247 247 251 253 251 247 245 244 244 245 247 243
305 305 306 307 309 311 312 313 315 318 319 318 320 319 320 316 315 315 314 314 316 318 317 318 317 319 321 322 323 324 325 326 326 326 326 327 328 327 328 328 325 321 317 311 308 308 307 306 303 299 296 293 289 286 281 275 270 265 259 254 252 250 250 251 250 249 245 240 239 238 240 243 247 247 248 249 251 253 251 247 245 245 245 245 246
303 302 304 306 307 308 308 310 311 313 313 316 318 319 317 315 317 317 316 316 318 318 318 319 318 320 321 322 322 324 326 327 328 328 328 327 327 327 328 327 325 323 318 314 310 310 309 307 305 302 300 296 293 288 283 278 272 266 262 255 250 248 247 246 247 244 243 239 236 235 235 239 242 246 247 248 250 252 251 247 246 245 244 244 246
299 301 304 305 305 306 306 307 308 311 315 317 315 315 316 318 318 317 316 316 318 318 319 320 319 319 321 321 322 324 326 327 329 328 327 326 326 327 327 328 327 323 320 315 313 311 310 308 307 304 301 298 293 289 285 280 273 268 264 261 255 249 246 245 245 242 238 239 237 235 238 237 242 244 246 248 250 250 248 246 247 246 243 240 244
299 301 303 303 304 307 308 311 312 314 313 313 312 314 316 318 319 318 317 318 319 nan 318 319 320 320 321 322 324 326 326 328 328 327 326 326 326 327 328 329 326 322 319 316 312 311 311 311 310 308 302 297 295 293 289 284 275 270 268 264 257 250 247 245 244 241 237 236 236 235 235 238 241 243 246 245 247 248 245 244 245 245 242 240 241
294 298 298 298 302 302 303 307 309 311 312 313 312 312 314 317 319 319 319 318 318 320 321 320 320 322 322 322 324 325 327 328 327 326 327 327 327 328 329 329 326 321 319 315 311 309 309 312 314 314 307 298 298 298 296 293 287 277 270 265 258 253 252 251 245 240 236 232 230 231 232 235 241 242 245 245 247 246 243 243 243 242 240 238 240
297 298 297 298 301 304 305 307 309 311 312 310 310 312 315 318 319 319 317 317 317 319 320 321 321 323 323 323 324 324 326 327 327 327 328 327 327 328 329 330 325 320 317 315 311 309 309 311 314 316 313 307 304 305 302 297 294 286 276 268 257 250 251 254 253 247 238 234 229 227 228 230 238 242 244 244 246 248 244 243 241 239 240 239 238
298 298 299 303 303 302 303 307 309 312 312 310 309 312 315 317 318 318 316 315 317 319 321 321 nan 322 322 324 324 325 327 328 327 328 327 326 326 329 330 330 324 318 314 313 312 309 308 309 312 317 319 316 311 311 307 296 293 293 287 274 258 250 nan 247 250 247 241 234 231 227 228 229 234 238 241 242 241 246 245 242 240 240 240 240 237
301 301 298 297 298 304 306 309 312 313 310 308 310 313 314 315 317 317 314 315 316 318 320 321 322 322 322 323 325 326 326 326 327 327 326 325 326 328 329 328 322 315 312 310 309 309 308 308 310 314 319 319 314 313 311 304 297 292 286 283 273 256 nan nan nan nan nan nan 225 226 230 233 231 236 238 237 239 243 244 242 242 242 242 240 237
294 296 299 301 302 303 307 310 311 310 307 307 308 310 312 314 317 316 315 316 316 318 321 321 321 321 322 324 325 324 324 325 326 326 325 324 325 326 328 327 322 316 312 311 308 306 306 308 310 313 318 321 319 315 313 308 299 288 284 286 285 273 nan nan nan nan nan nan nan nan 225 231 235 236 235 232 234 238 239 238 239 242 241 241 239
302 300 299 301 303 305 307 307 309 307 307 308 307 308 310 312 315 315 315 317 317 318 320 321 321 321 323 323 322 322 322 323 325 325 325 324 323 325 327 326 321 314 310 310 309 307 308 309 310 313 317 321 320 317 314 310 301 290 285 286 283 269 nan nan nan nan nan nan nan nan nan 227 233 236 238 234 233 235 236 238 241 242 242 242 240
302 301 302 302 303 303 305 306 306 307 306 306 306 309 312 315 317 317 317 317 315 318 319 320 321 322 322 322 320 321 321 321 324 325 323 322 322 323 325 324 319 311 308 309 310 310 311 311 310 311 317 320 320 318 319 323 314 298 284 281 279 nan nan nan nan nan nan nan nan nan nan nan nan 231 240 243 240 239 239 236 235 239 240 240 239
300 300 301 300 300 302 303 304 306 306 306 306 307 311 313 317 318 319 318 317 315 317 318 319 321 321 320 319 319 319 319 321 324 324 322 320 320 321 323 322 316 310 308 308 310 311 312 312 311 312 316 319 319 317 322 323 315 303 288 276 nan nan nan nan nan nan nan nan nan nan nan nan nan nan 238 243 243 244 243 nan nan nan 233 239 241
301 300 298 298 301 302 303 306 306 305 305 306 309 312 313 317 317 317 317 315 314 315 317 318 319 318 318 318 318 318 320 323 324 324 321 319 319 320 321 319 313 309 307 308 310 310 310 310 310 311 315 318 318 319 324 322 314 304 291 nan 295 nan nan nan nan nan nan nan nan nan nan 226 229 228 229 238 247 nan nan nan nan nan 238 235 236
299 299 300 300 302 303 304 305 303 303 306 310 310 311 315 316 316 315 313 313 314 315 315 317 317 317 317 317 317 319 322 324 324 322 319 317 318 319 319 316 312 308 308 309 308 307 306 307 309 310 312 316 318 319 323 322 318 313 298 nan 299 nan nan nan nan nan nan nan nan nan 220 223 225 222 228 230 228 236 nan nan nan nan nan nan nan
298 299 300 299 296 296 300 304 304 306 308 307 309 312 313 313 313 311 312 313 313 314 315 317 317 317 318 318 318 321 324 325 323 320 318 317 317 318 317 315 312 311 310 309 306 303 302 304 305 307 310 314 317 318 324 325 324 321 310 296 300 nan nan nan nan nan nan nan nan nan nan nan nan nan nan 221 223 228 235 244 nan nan nan nan nan
298 296 295 295 297 297 298 299 302 305 305 305 307 310 310 310 311 311 311 312 313 314 315 317 318 318 318 319 322 324 325 323 321 319 317 317 317 317 316 313 310 310 309 307 303 299 300 302 303 305 309 312 315 318 323 324 326 329 321 309 304 nan nan nan nan nan nan nan nan nan nan nan nan nan nan nan nan 221 225 238 246 nan nan nan nan
296 297 296 295 296 300 303 304 300 300 303 305 308 309 312 313 310 311 312 312 313 314 316 318 319 320 321 323 324 325 323 321 320 318 317 317 316 316 315 311 309 309 310 309 305 304 303 303 302 304 307 310 311 318 324 325 328 330 321 311 304 314 nan nan nan nan nan nan nan nan nan nan nan nan nan nan nan nan 227 nan 239 245 248 nan nan
295 296 297 297 298 298 298 294 295 300 303 307 309 310 312 312 311 312 312 313 313 316 319 320 321 322 323 324 324 323 321 321 319 317 316 316 315 315 313 311 309 308 309 307 304 302 302 304 305 305 307 308 308 315 322 326 331 331 324 317 315 321 331 325 nan nan nan nan nan nan nan nan nan nan nan nan nan nan nan nan nan nan 244 nan nan
289 288 287 289 290 290 290 294 299 303 306 307 309 311 311 311 312 313 314 315 316 319 320 320 321 323 323 323 323 321 321 321 319 317 316 314 313 313 314 312 310 308 309 306 302 302 303 304 307 307 305 304 305 313 323 327 329 331 327 324 321 324 337 333 277 246 nan nan nan nan nan nan nan nan nan nan nan nan nan nan nan nan 242 243 247
293 296 296 294 292 293 293 295 300 306 309 309 310 311 312 313 313 315 315 315 317 319 319 320 321 322 322 322 321 321 322 321 319 316 313 312 311 311 312 313 311 309 309 306 303 302 301 302 304 304 307 309 303 309 322 329 330 332 330 328 329 327 339 342 308 258 252 256 248 nan nan nan nan nan nan nan nan nan nan nan nan nan nan 242 245
293 293 292 289 287 289 295 301 306 312 308 308 308 310 314 313 315 315 315 316 318 319 317 317 319 320 321 321 321 322 322 321 319 315 312 311 311 311 311 311 309 306 303 301 302 302 301 299 300 303 301 302 300 303 313 322 326 329 333 333 333 330 331 345 331 283 248 240 241 237 nan nan nan nan nan nan nan nan nan nan 225 nan nan 233 241
296 297 294 292 294 297 302 307 307 304 304 306 308 312 314 314 314 314 316 316 317 314 315 318 319 320 322 323 322 321 321 320 317 313 310 311 310 309 310 311 306 301 301 302 299 298 299 301 301 301 301 299 297 297 302 309 318 324 329 335 338 336 330 339 348 320 275 244 227 209 nan nan nan nan nan nan nan nan nan nan nan nan nan 219 217
291 291 294 295 297 300 303 305 304 302 305 307 310 313 313 312 312 315 316 314 314 314 316 318 319 320 321 321 320 318 317 315 314 311 311 311 309 307 308 308 304 301 300 298 297 297 299 303 305 303 301 300 300 302 299 300 305 311 321 338 341 338 326 327 352 352 304 266 246 233 235 210 nan nan nan nan nan nan nan nan nan nan nan nan 216
293 292 296 296 297 301 306 306 302 305 306 308 311 313 312 311 313 316 313 312 312 314 316 317 318 319 319 318 316 316 315 312 311 312 312 312 309 306 304 304 303 299 296 293 292 292 295 300 303 304 303 301 301 303 304 298 298 nan nan nan 338 342 338 332 342 356 346 296 262 245 239 207 188 nan nan nan nan nan nan nan nan nan nan nan nan
290 290 289 295 298 301 301 299 301 304 307 309 312 312 310 311 316 313 310 311 313 316 317 318 317 317 317 316 315 315 315 313 311 311 313 314 311 306 302 301 299 297 293 290 288 290 293 295 297 301 304 303 303 304 307 301 nan nan nan nan nan nan 336 331 334 349 356 352 295 240 224 193 186 187 nan nan nan nan nan nan nan nan nan nan nan
281 282 283 290 297 299 298 299 301 305 306 308 310 311 310 314 314 310 311 315 317 317 317 316 316 316 316 315 314 315 315 313 314 315 317 317 314 306 302 301 298 293 292 290 288 289 292 295 298 302 304 303 301 303 305 303 nan nan nan nan nan nan nan nan 332 336 348 353 28 99 149 186 nan nan nan nan nan nan nan nan nan nan nan nan nan
286 289 291 295 298 301 301 302 303 305 306 307 310 311 315 316 309 310 314 317 318 317 316 315 314 314 313 313 314 316 316 315 311 311 316 318 317 309 304 301 297 294 293 293 291 290 292 293 297 298 299 300 301 304 302 300 nan nan nan nan nan nan nan nan nan nan nan nan nan nan nan nan nan nan nan 224 nan nan nan nan nan nan nan nan nan
292 292 293 297 301 302 303 303 304 305 307 309 311 313 313 310 311 313 316 316 316 315 314 313 312 311 311 313 316 317 313 308 312 310 310 314 316 310 304 302 299 295 294 293 291 290 291 291 294 294 294 295 297 298 298 nan nan nan nan nan nan nan nan nan 332 326 nan nan nan 330 295 nan nan nan nan 227 215 nan nan nan nan nan nan nan nan
293 294 297 300 302 303 303 304 303 303 305 308 310 313 313 314 315 316 315 313 313 314 313 312 310 310 310 312 313 314 311 310 312 311 310 311 311 308 302 298 295 292 293 293 290 288 287 nan nan nan 290 290 289 291 nan nan nan nan nan nan nan nan nan nan nan nan nan nan 336 332 319 283 259 251 249 247 238 225 208 193 188 nan nan nan nan
291 294 299 301 300 300 300 301 301 301 305 307 310 311 312 313 314 313 312 313 312 311 311 309 308 309 310 312 311 308 307 310 310 308 307 303 302 300 296 291 nan nan nan nan 290 nan nan nan nan nan nan nan nan nan nan nan nan nan nan nan nan nan nan nan nan nan nan nan 327 312 291 272 264 258 250 244 240 233 225 212 203 196 195 nan nan
289 nan 294 296 296 296 298 301 301 301 304 306 308 309 309 310 310 310 310 310 308 308 308 309 308 307 306 308 309 308 304 305 309 310 307 298 nan nan 281 293 nan nan nan nan nan nan nan nan nan nan nan nan nan nan nan nan nan nan nan nan nan nan nan nan nan nan nan nan 320 307 298 286 278 270 258 245 234 232 226 222 219 213 205 201 nan
290 292 295 296 296 296 298 300 301 303 305 307 307 307 307 307 306 306 306 306 306 306 307 308 307 306 306 308 306 304 302 303 306 306 306 304 nan nan nan nan nan nan nan nan nan nan nan nan nan nan nan nan nan nan nan nan nan nan nan nan nan nan nan nan nan nan 329 315 307 300 296 292 286 nan nan nan nan 234 224 222 220 218 215 208 203